Regional Weather Roundup
Issued by NWS

Home | Current Version | Previous Version | Graphics & Text | Print | Product List | Glossary On
Versions: 1 2 3 4 5 6 7 8 9 10 11 12 13 14 15 16 17 18 19 20 21 22 23 24 25 26 27 28 29 30 31 32 33 34 35 36 37 38 39 40 41 42 43 44 45 46 47 48 49 50
000
ASUS43 KOAX 270110
RWRNE

WEATHER ROUNDUP FOR NEBRASKA
NATIONAL WEATHER SERVICE OMAHA NE
800 PM CDT WED APR 26 2017

NOTES: SATELLITE DATA IS BEING USED TO AUGMENT CLOUD COVER ABOVE
       12000 FEET.
       "FAIR" INDICATES FEW OR NO CLOUDS BELOW 12,000 FEET WITH NO
       SIGNIFICANT WEATHER AND/OR OBSTRUCTIONS TO VISIBILITY.

  * THESE STATIONS DO NOT REPORT WEATHER SUCH AS RAIN...SNOW OR FOG.

NEZ001>004-019>022-054>056-270200-
NEBRASKA PANHANDLE

CITY           SKY/WX    TMP DP  RH WIND       PRES   REMARKS
SCOTTSBLUFF    LGT RAIN  49  37  63 NE13      29.67F
ALLIANCE       MOCLDY    48  32  53 NE14      29.67F
CHADRON        CLEAR     42  32  67 NE9       29.72S
KIMBALL        MOCLDY    47  39  73 CALM      29.69S
SIDNEY         LGT RAIN  49  38  65 W10G20    29.70R
$$

NEZ057>060-069>072-079>082-270200-
SOUTHWEST NEBRASKA

CITY           SKY/WX    TMP DP  RH WIND       PRES   REMARKS
NORTH PLATTE   CLEAR     48  31  51 NE7       29.70F
IMPERIAL       CLEAR     54  28  36 NE7       29.67F
LEXINGTON      CLEAR     47  31  55 N10       29.69F
MCCOOK         CLEAR     53  29  39 N10       29.68S
OGALLALA       CLEAR     53  32  43 NE9       29.68S
$$

NEZ005>010-023>029-035>040-094-270200-
NORTH CENTRAL NEBRASKA

CITY           SKY/WX    TMP DP  RH WIND       PRES   REMARKS
VALENTINE      MOCLDY    42  27  55 NW6       29.72F
AINSWORTH      CLEAR     40  30  68 NW10      29.71F WCI  33
BROKEN BOW     CLEAR     43  29  57 N12       29.70S
O`NEILL        MOCLDY    42  29  58 NW10      29.69S
ORD            CLOUDY    41  29  62 N12       29.69F
THEDFORD       CLEAR     43  30  59 N6        29.72S
$$

NEZ041-046>049-061>064-073>077-083>087-270200-
SOUTH CENTRAL NEBRASKA

CITY           SKY/WX    TMP DP  RH WIND       PRES   REMARKS
GRAND ISLAND   CLOUDY    42  31  64 NW18      29.70S
AURORA         CLOUDY    43  30  61 NW17      29.69S
HASTINGS       PTCLDY    43  30  60 N17       29.70S
HEBRON         PTCLDY    45  31  59 NW15      29.69R
HOLDREGE       CLEAR     46  30  54 N9        29.69S
KEARNEY *      CLEAR     45  28  53 N14       29.70F
YORK           CLOUDY    43  32  65 NW15      29.68S
$$

NEZ011>018-030>034-042>045-270200-
NORTHEAST NEBRASKA

CITY           SKY/WX    TMP DP  RH WIND       PRES   REMARKS
NORFOLK        CLOUDY    40  29  64 NW14      29.66F WCI  32
ALBION         CLOUDY    42  30  62 NW15G23   29.68F
BLAIR          CLOUDY    41  32  71 NW16G23   29.66R
FREMONT        CLOUDY    41  32  70 N12G22    29.68S
TEKAMAH        CLOUDY    41  31  67 NW20      29.67R
WAYNE          CLOUDY    38  32  79 N15G21    29.67F WCI  29
$$

NEZ050>053-065>068-078-088>093-270200-
SOUTHEAST NEBRASKA

CITY           SKY/WX    TMP DP  RH WIND       PRES   REMARKS
LINCOLN        CLOUDY    45  33  63 N14       29.69R
OMAHA EPPLEY   CLOUDY    43  32  65 NW13      29.66R
BEATRICE       CLOUDY    45  34  65 N15       29.67R
FALLS CITY     CLOUDY    43  34  70 NW10      29.65R
NEBRASKA CITY  CLOUDY    42  30  62 NW16      29.65F
PLATTSMOUTH    CLOUDY    42  30  62 NW14      29.65S
$$

NEZ044-045-051>053-067-270200-
OMAHA AREA

CITY           SKY/WX    TMP DP  RH WIND       PRES   REMARKS
OMAHA EPPLEY   CLOUDY    43  32  65 NW13      29.66R
BLAIR          CLOUDY    41  32  71 NW16G23   29.66R
FREMONT        CLOUDY    41  32  70 N12G22    29.68S
MILLARD        CLOUDY    44  33  67 NW13G20   29.67S
OFFUTT AFB     CLOUDY    42  32  67 NW13      29.65S
PLATTSMOUTH    CLOUDY    42  30  62 NW14      29.65S
WAHOO          CLOUDY    42  32  67 N14       29.67S
$$



USA.gov is the U.S. government's official web portal to all federal, state and local government web resources and services.